Location: Bletchingley
(51.2333°N, 0.1000°W)
Time: 02:08:45
(UTC+00:00)

Cosmos 1125 Rocket - Pass Details

Date: 18 September 2020
Orbit: 758 x 779 km, 74.0° (Epoch: 30 October)

Event Time Altitude Azimuth Distance (km) Brightness Sun altitude
Rises 20:38:45 0° 203° (SSW) 3,247 6.6 -23.1°
Reaches altitude 10° 20:41:07 10° 204° (SSW) 2,325 5.9 -23.4°
Maximum altitude 20:46:25 87° 294° (WNW) 788 3.5 -24.1°
Drops below altitude 10° 20:51:46 10° 24° (NNE) 2,345 6.2 -24.7°
Sets 20:54:10 0° 25° (NNE) 3,276 6.9 -25.0°
